Regional Weather Roundup
Issued by NWS

Home | Current Version | Previous Version | Graphics & Text | Print | Product List | Glossary On
Versions: 1 2 3 4 5 6 7 8 9 10 11 12 13 14 15 16 17 18 19 20 21 22 23 24 25 26 27 28 29 30 31 32 33 34 35 36 37 38 39 40 41 42 43 44 45 46 47 48 49 50
000
ASUS43 KOAX 281910
RWRNE

WEATHER ROUNDUP FOR NEBRASKA
NATIONAL WEATHER SERVICE OMAHA NE
200 PM CDT TUE MAR 28 2017

NOTES: SATELLITE DATA IS BEING USED TO AUGMENT CLOUD COVER ABOVE
       12000 FEET.
       "FAIR" INDICATES FEW OR NO CLOUDS BELOW 12,000 FEET WITH NO
       SIGNIFICANT WEATHER AND/OR OBSTRUCTIONS TO VISIBILITY.

  * THESE STATIONS DO NOT REPORT WEATHER SUCH AS RAIN...SNOW OR FOG.

NEZ001>004-019>022-054>056-282000-
NEBRASKA PANHANDLE

CITY           SKY/WX    TMP DP  RH WIND       PRES   REMARKS
SCOTTSBLUFF    LGT RAIN  45  42  89 E17       29.94R
ALLIANCE       LGT RAIN  43  41  93 E21       29.95S FOG
CHADRON        LGT RAIN  44  41  89 NE14      30.01S
KIMBALL        LGT RAIN  45  45 100 E12       29.90F
SIDNEY         LGT RAIN  43  42  97 E18       29.91F FOG
$$

NEZ057>060-069>072-079>082-282000-
SOUTHWEST NEBRASKA

CITY           SKY/WX    TMP DP  RH WIND       PRES   REMARKS
NORTH PLATTE   CLOUDY    46  43  89 E13       30.01S
IMPERIAL       CLOUDY    44  43  96 E18G24    29.95R FOG
LEXINGTON      CLOUDY    51  43  74 E10       30.00S
MCCOOK         LGT RAIN  47  45  93 E15       29.97S FOG
OGALLALA       LGT RAIN  46  44  95 E13G23    29.96S
$$

NEZ005>010-023>029-035>040-094-282000-
NORTH CENTRAL NEBRASKA

CITY           SKY/WX    TMP DP  RH WIND       PRES   REMARKS
VALENTINE      CLOUDY    48  43  82 SE6       30.06S
AINSWORTH      CLOUDY    49  44  82 E8        30.06F
BROKEN BOW     CLOUDY    50  40  68 E12       30.02F
O`NEILL        CLOUDY    52  41  65 E9        30.07F
ORD            CLOUDY    50  39  66 E13       30.04F
THEDFORD       CLOUDY    46  43  90 E6        30.04F
$$

NEZ041-046>049-061>064-073>077-083>087-282000-
SOUTH CENTRAL NEBRASKA

CITY           SKY/WX    TMP DP  RH WIND       PRES   REMARKS
GRAND ISLAND   CLOUDY    51  42  71 E15       30.05S
AURORA         CLOUDY    49  42  77 E16       30.05S
HASTINGS       CLOUDY    52  41  66 E16       30.03F
HEBRON         PTSUNNY   52  41  66 E15       30.03S
HOLDREGE       CLOUDY    52  41  64 E12       30.00R
KEARNEY *      CLOUDY    54  39  58 E15       30.02S
YORK           CLOUDY    48  41  76 E15       30.05F
$$

NEZ011>018-030>034-042>045-282000-
NORTHEAST NEBRASKA

CITY           SKY/WX    TMP DP  RH WIND       PRES   REMARKS
NORFOLK        CLOUDY    53  39  59 SE10      30.08F
ALBION         CLOUDY    51  40  65 E9        30.08S
BLAIR          CLOUDY    48  42  79 E9        30.09F
FREMONT        CLOUDY    48  41  76 E9        30.09F
TEKAMAH        CLOUDY    52  42  69 E8        30.10F
WAYNE          CLOUDY    55  41  60 E8        30.08F
$$

NEZ050>053-065>068-078-088>093-282000-
SOUTHEAST NEBRASKA

CITY           SKY/WX    TMP DP  RH WIND       PRES   REMARKS
LINCOLN        CLOUDY    50  40  68 NE13G18   30.08F
OMAHA EPPLEY   CLOUDY    50  41  71 E9        30.10F
BEATRICE       CLOUDY    51  42  71 E12G17    30.04F
FALLS CITY     CLOUDY    53  44  71 E7        30.05F
NEBRASKA CITY  CLOUDY    52  38  59 E9        30.07F
PLATTSMOUTH    CLOUDY    50  38  62 E8        30.08F
$$

NEZ044-045-051>053-067-282000-
OMAHA AREA

CITY           SKY/WX    TMP DP  RH WIND       PRES   REMARKS
OMAHA EPPLEY   CLOUDY    50  41  71 E9        30.10F
BLAIR          CLOUDY    48  42  79 E9        30.09F
FREMONT        CLOUDY    48  41  76 E9        30.09F
MILLARD        CLOUDY    50  43  76 NE3       30.09F
OFFUTT AFB     CLOUDY    49  41  74 E8        30.09F
PLATTSMOUTH    CLOUDY    50  38  62 E8        30.08F
WAHOO          CLOUDY    48  41  75 NE12      30.08F
$$



USA.gov is the U.S. government's official web portal to all federal, state and local government web resources and services.